Showing default

HULIANWANG DIGUI-184, 100209

Orbit data source: Space-Track

HULIANWANG DIGUI-184, 100209 is a payload satellite owned by Zhongguo Xingwang (CN) in LEO that was launched on Tue, 04 Aug 2026 UTC launched from the Wenchang Satellite Launch Center (WSC). Payload-class satellites include a variety of spacecraft equipped with specific instruments for various scientific and technological missions. These include communications satellites like Starlink; space stations such as the ISS; scientific satellites like the Hubble; Earth observation satellites from companies like Planet Labs, Umbra, and HawkEye 360; GPS; miniature CubeSats for education and research; and military/defense satellites.

Loading next visibility...
Identifier
100209, 2026-176G
Orbit
LEO
Country
Flag of CNCN / PRC
Related business
Manufacturer
CAST?
Mission
Operational spacecraft
Bus & Motor
XINGWANG C, Unknown motor
Mass
~700 kg wet, ~700 kg dry
Launch date (UTC)
2026-08-04 (1 month ago)
Launch vehicle
Unknown
Launch site
Wenchang Satellite Launch Center (WSC)
Object type
Payload
Rocket body
Debris
Shape & HBR
BOX + 2 PAN, 5.0 m
Radar Cross Section
Large (>1 m²)

Expand to show TLE details & history
Last TLE update: 10 hours ago

TLE from 10 hours ago
0 HULIANWANG DIGUI-184
1 A0209U 26176G   26249.46084500 -.00000067  00000-0  12227-3 0  9994
2 A0209  49.9970 274.1983 0000097 330.3107  29.7759 13.29326982  4433
Epoch: 2026-09-06T11:03Z
TLE epoch observation values (Epoch: 2026-09-06T11:03:37.008Z)
Latitude
-0.00004°
Longitude
122.73843°
Altitude
1,149.745 km
Speed
7.279 km/s
True Right ascension
18h 16m 47s
True Declination
0° 00' 00"
Sunlit
Object was in daylight at epoch
Visualization orbit readout
Latitude
Unknown
Longitude
Unknown
Altitude
Unknown
Speed
Unknown
Apparent Right ascension
Unknown
Apparent Declination
Unknown
Sunlit
N/A
Visualization observer readout
Local Sidereal Time
12:46:54
Azimuth
Unknown
Elevation
Unknown
Doppler factor
Unknown
Orbital elements
Apogee altitude
1,150.082 km
Perigee altitude
1,149.936 km
Semi-major axis
7,528.146 km
Eccentricity
0.00001
Inclination
49.997°
RAAN
274.1983°
Arg. of periapsis
330.3107°
True anomaly
29.77645°
Mean anomaly
29.7759°
Eccentric anomaly
29.77618°
Mean motion
3.32285 °/min
Orbital period
108.34 mins
BSTAR
0.00012227
Loading maneuver chart data...
Computing Atmospheric mass density...
Loading historical data...
Loading historical data...
Loading historical data...
Loading historical data...
Loading historical data...
Loading historical data...
Loading historical data...

Documentation

Showing up to 5 results
|